Torna al catalogo

STARLINK-5799

AttivoComunicazioniVLEO
NORAD 56002·PAYLOAD·🇺🇸 United States

Lanciato Mar 24, 2023 da Cape Canaveral Space Force Station

Loading…

Prossimi Passaggi (prossime 24 ore)

TLE

AggiornatoSource: CelesTrak SupGP

Epoca: Sep 15, 2026, 02:03 UTC

1 56002C 23042S   26258.08590278 -.00030471  00000+0 -11034-2 0  2581
2 56002  43.0039  69.8797 0001845 271.9266 188.7356 15.27601759    13

Traccia STARLINK-5799 in tempo reale con AllMySat

Download on the App Store